Hinckley, MN

8:29 PM CST on December 08, 2019 (GMT -0600)
Hinckley

Weather History for K04W - October, 2019

Change the Weather History Date:

Thursday, October 3, 2019

  Actual Average (KJMR) Record (KJMR)
Temperature  
Mean Temperature 44 °F -  
Max Temperature 46 °F 64 °F 84 °F (1997)
Min Temperature 42 °F 36 °F 18 °F (1989)
Degree Days  
Heating Degree Days 21    
Moisture  
Dew Point 41 °F    
Average Humidity 88    
Maximum Humidity 100    
Minimum Humidity 71    
Precipitation  
Precipitation 0.02 in - - ()
Sea Level Pressure  
Sea Level Pressure 30.17 in    
Wind  
Wind Speed 4 mph (NNW)    
Max Wind Speed 15 mph    
Max Gust Speed 22 mph    
Visibility 8 miles    
Events Rain    
Averages and records for this station are not official NWS values.
T = Trace of Precipitation, MM = Missing Value Source: NWS Daily Summary

Daily Weather History Graph

Daily Weather History Graph

Search for Another Location

Airport or City:

Astronomy

Oct. 03, 2019 Rise Set
Actual Time 7:12 AM CDT 6:48 PM CDT
Civil Twilight 6:42 AM CDT 7:17 PM CDT
Nautical Twilight 6:07 AM CDT 7:52 PM CDT
Astronomical Twilight 5:32 AM CDT 8:27 PM CDT
Moon 1:00 PM CDT (10/3) 10:10 PM CDT (10/3)
Length of Visible Light 12h 35m
Length of Day
11h 35m
Waxing Crescent, 30% of the Moon is Illuminated
Oct 3
Waxing Crescent
Oct 5
First Quarter
Oct 13
Full
Oct 21
Last Quarter
Oct 27
New

Hourly Weather History & Observations

Time (CDT) Temp. Windchill Dew Point Humidity Pressure Visibility Wind Dir Wind Speed Gust Speed Precip Events Conditions
12:00 AM 44.6 °F 40.7 °F 44.6 °F 100% 30.03 in 7.0 mi NE 6.9 mph - N/A   Light Drizzle
12:17 AM 44.6 °F 41.4 °F 44.6 °F 100% 30.03 in 7.0 mi NE 5.8 mph - N/A   Light Drizzle
12:35 AM 44.6 °F 42.2 °F 44.6 °F 100% 30.02 in 5.0 mi NE 4.6 mph - N/A Rain Light Rain
12:55 AM 44.6 °F 42.2 °F 44.6 °F 100% 30.01 in 5.0 mi NE 4.6 mph - N/A   Drizzle
1:15 AM 44.6 °F 43.1 °F 44.6 °F 100% 30.01 in 4.0 mi NE 3.5 mph - N/A   Light Drizzle
1:16 AM 44.6 °F 43.1 °F 44.6 °F 100% 30.01 in 5.0 mi NE 3.5 mph - N/A   Light Drizzle
1:38 AM 44.6 °F 43.1 °F 44.6 °F 100% 30.01 in 4.0 mi ENE 3.5 mph - N/A   Light Drizzle
1:56 AM 44.6 °F 43.1 °F 44.6 °F 100% 30.01 in 4.0 mi ENE 3.5 mph - N/A   Drizzle
2:15 AM 44.6 °F 41.4 °F 44.6 °F 100% 30.01 in 5.0 mi NNE 5.8 mph - N/A   Overcast
2:35 AM 44.6 °F 43.1 °F 44.6 °F 100% 30.01 in 3.0 mi NE 3.5 mph - N/A   Light Drizzle
2:36 AM 44.6 °F 43.1 °F 44.6 °F 100% 30.01 in 3.0 mi NE 3.5 mph - N/A   Light Drizzle
2:55 AM 44.6 °F 43.1 °F 44.6 °F 100% 30.01 in 3.0 mi ENE 3.5 mph - 0.01 in   Drizzle
3:17 AM 44.6 °F 43.1 °F 44.6 °F 100% 30.01 in 5.0 mi NNE 3.5 mph - N/A Rain Light Rain
3:35 AM 44.6 °F 43.1 °F 44.6 °F 100% 30.01 in 3.0 mi NNE 3.5 mph - N/A   Drizzle
3:55 AM 44.6 °F 43.1 °F 44.6 °F 100% 30.01 in 7.0 mi NNE 3.5 mph - 0.01 in   Light Drizzle
3:56 AM 44.6 °F - 44.6 °F 100% 30.01 in 7.0 mi Calm Calm - 0.01 in   Light Drizzle
4:15 AM 44.6 °F 43.1 °F 44.6 °F 100% 30.01 in 4.0 mi NNE 3.5 mph - N/A Rain Rain
4:16 AM 44.6 °F 43.1 °F 44.6 °F 100% 30.01 in 4.0 mi NNE 3.5 mph - N/A Rain Rain
4:38 AM 44.6 °F - 44.6 °F 100% 30.01 in 4.0 mi Calm Calm - N/A   Overcast
4:57 AM 44.6 °F - 44.6 °F 100% 30.01 in 3.0 mi Calm Calm - N/A   Overcast
5:15 AM 44.6 °F - 44.6 °F 100% 30.01 in 2.5 mi Calm Calm - N/A   Overcast
5:16 AM 44.6 °F - 44.6 °F 100% 30.01 in 2.5 mi Calm Calm - N/A   Overcast
5:35 AM 42.8 °F - 42.8 °F 100% 30.01 in 3.0 mi Calm Calm - N/A   Overcast
5:36 AM 42.8 °F - 42.8 °F 100% 30.01 in 3.0 mi Calm Calm - N/A   Overcast
5:58 AM 44.6 °F - 44.6 °F 100% 30.01 in 4.0 mi Calm Calm - N/A   Overcast
6:17 AM 44.6 °F - 44.6 °F 100% 30.02 in 4.0 mi Calm Calm - N/A   Overcast
6:36 AM 44.6 °F 42.2 °F 44.6 °F 100% 30.03 in 3.0 mi West 4.6 mph - N/A   Overcast
6:55 AM 44.6 °F - 44.6 °F 100% 30.03 in 4.0 mi Calm Calm - N/A   Overcast
7:15 AM - - - N/A% - - North - - N/A   Unknown
7:19 AM - - - N/A% - - North - - N/A   Unknown
7:39 AM 44.6 °F 42.2 °F 44.6 °F 100% 30.05 in 5.0 mi WNW 4.6 mph - N/A   Mist
7:56 AM 44.6 °F 42.2 °F 44.6 °F 100% 30.05 in 1.8 mi WNW 4.6 mph - N/A   Overcast
8:16 AM 44.6 °F 43.1 °F 44.6 °F 100% 30.06 in 4.0 mi West 3.5 mph - N/A   Overcast
8:35 AM 44.6 °F 40.7 °F 42.8 °F 93% 30.07 in 10.0 mi WNW 6.9 mph 18.4 mph N/A   Overcast
8:36 AM 44.6 °F 39.7 °F 42.8 °F 93% 30.07 in 10.0 mi WNW 9.2 mph 18.4 mph N/A   Overcast
8:55 AM 42.8 °F 38.0 °F 42.8 °F 100% 30.08 in 10.0 mi WNW 8.1 mph 17.3 mph N/A   Overcast
8:59 AM 42.8 °F 37.0 °F 41.0 °F 93% 30.08 in 10.0 mi WNW 10.4 mph 18.4 mph N/A   Overcast
9:17 AM 42.8 °F 37.0 °F 41.0 °F 93% 30.10 in 10.0 mi WNW 10.4 mph 20.7 mph N/A   Overcast
9:35 AM 42.8 °F 37.0 °F 41.0 °F 93% 30.10 in 10.0 mi WNW 10.4 mph 17.3 mph N/A   Overcast
9:55 AM 42.8 °F 37.5 °F 41.0 °F 93% 30.11 in 10.0 mi WNW 9.2 mph 17.3 mph N/A   Overcast
10:15 AM 44.6 °F 39.7 °F 39.2 °F 81% 30.13 in 10.0 mi WNW 9.2 mph 17.3 mph N/A   Overcast
10:20 AM 42.8 °F 36.6 °F 39.2 °F 87% 30.13 in 10.0 mi NW 11.5 mph 17.3 mph N/A   Overcast
10:37 AM 42.8 °F 36.2 °F 37.4 °F 81% 30.13 in 10.0 mi NW 12.7 mph 19.6 mph N/A   Overcast
10:55 AM 44.6 °F 38.4 °F 37.4 °F 76% 30.14 in 10.0 mi WNW 12.7 mph 21.9 mph N/A   Overcast
11:15 AM 44.6 °F 38.1 °F 37.4 °F 76% 30.15 in 10.0 mi NW 13.8 mph 21.9 mph N/A   Overcast
11:16 AM 44.6 °F 38.1 °F 37.4 °F 76% 30.15 in 10.0 mi NW 13.8 mph 21.9 mph N/A   Overcast
11:35 AM 44.6 °F 38.8 °F 37.4 °F 76% 30.16 in 10.0 mi WNW 11.5 mph 20.7 mph N/A   Overcast
11:36 AM 44.6 °F 38.8 °F 37.4 °F 76% 30.16 in 10.0 mi NW 11.5 mph 20.7 mph N/A   Overcast
11:58 AM 44.6 °F 40.7 °F 37.4 °F 76% 30.16 in 10.0 mi WNW 6.9 mph - N/A   Overcast
12:16 PM 44.6 °F 37.8 °F 37.4 °F 76% 30.17 in 10.0 mi NW 15.0 mph - N/A   Overcast
12:35 PM 44.6 °F - 37.4 °F 76% 30.17 in 10.0 mi Calm Calm - N/A   Overcast
12:36 PM 44.6 °F 42.2 °F 37.4 °F 76% 30.18 in 10.0 mi NW 4.6 mph 16.1 mph N/A   Overcast
12:55 PM 44.6 °F 39.2 °F 37.4 °F 76% 30.18 in 10.0 mi NW 10.4 mph 16.1 mph N/A   Overcast
12:56 PM 44.6 °F 42.2 °F 37.4 °F 76% 30.18 in 10.0 mi NW 4.6 mph 16.1 mph N/A   Overcast
1:15 PM 44.6 °F 38.1 °F 37.4 °F 76% 30.18 in 10.0 mi NW 13.8 mph - N/A   Overcast
1:37 PM 44.6 °F 39.2 °F 37.4 °F 76% 30.19 in 10.0 mi NW 10.4 mph 18.4 mph N/A   Overcast
1:56 PM 44.6 °F 42.2 °F 37.4 °F 76% 30.20 in 10.0 mi WNW 4.6 mph - N/A   Overcast
2:15 PM 44.6 °F 38.4 °F 37.4 °F 76% 30.20 in 10.0 mi NNW 12.7 mph 17.3 mph N/A   Overcast
2:16 PM 44.6 °F 38.8 °F 37.4 °F 76% 30.20 in 10.0 mi NW 11.5 mph 17.3 mph N/A   Overcast
2:35 PM 44.6 °F 43.1 °F 37.4 °F 76% 30.21 in 10.0 mi NW 3.5 mph - N/A   Overcast
2:36 PM 44.6 °F - 37.4 °F 76% 30.21 in 10.0 mi Calm Calm - N/A   Overcast
2:58 PM 44.6 °F 40.7 °F 37.4 °F 76% 30.22 in 10.0 mi NNW 6.9 mph - N/A   Overcast
3:16 PM 44.6 °F - 37.4 °F 76% 30.22 in 10.0 mi Calm Calm - N/A   Overcast
3:35 PM 46.4 °F - 37.4 °F 71% 30.23 in 10.0 mi Calm Calm - N/A   Overcast
3:36 PM 46.4 °F - 37.4 °F 71% 30.23 in 10.0 mi Calm Calm - N/A   Overcast
3:55 PM 46.4 °F - 37.4 °F 71% 30.23 in 10.0 mi Calm Calm - N/A   Overcast
3:56 PM 46.4 °F - 37.4 °F 71% 30.23 in 10.0 mi Calm Calm - N/A   Overcast
4:20 PM 46.4 °F - 37.4 °F 71% 30.25 in 10.0 mi Calm Calm - N/A   Overcast
4:36 PM 46.4 °F 45.2 °F 37.4 °F 71% 30.25 in 10.0 mi NW 3.5 mph - N/A   Overcast
4:56 PM 46.4 °F - 37.4 °F 71% 30.26 in 10.0 mi Calm Calm - N/A   Overcast
5:15 PM 44.6 °F 41.4 °F 37.4 °F 76% 30.28 in 10.0 mi NNW 5.8 mph - N/A   Overcast
5:35 PM 44.6 °F 41.4 °F 37.4 °F 76% 30.28 in 10.0 mi NNW 5.8 mph - N/A   Overcast
5:40 PM 44.6 °F - 37.4 °F 76% 30.29 in 10.0 mi Calm Calm - N/A   Overcast
5:57 PM 44.6 °F 41.4 °F 37.4 °F 76% 30.29 in 10.0 mi NW 5.8 mph - N/A   Overcast
6:16 PM 44.6 °F - 37.4 °F 76% 30.31 in 10.0 mi Calm Calm - N/A   Overcast
6:35 PM 44.6 °F - 37.4 °F 76% 30.31 in 10.0 mi Calm Calm - N/A   Overcast
6:55 PM 44.6 °F - 37.4 °F 76% 30.32 in 10.0 mi Calm Calm - N/A   Overcast
7:18 PM 44.6 °F - 39.2 °F 81% 30.32 in 10.0 mi Calm Calm - N/A   Overcast
7:36 PM 44.6 °F - 39.2 °F 81% 30.33 in 10.0 mi Calm Calm - N/A   Overcast
7:56 PM 42.8 °F - 41.0 °F 93% 30.33 in 10.0 mi Calm Calm - N/A   Overcast
8:15 PM 42.8 °F - 39.2 °F 87% 30.33 in 10.0 mi Calm Calm - N/A   Overcast
8:16 PM 42.8 °F - 39.2 °F 87% 30.33 in 10.0 mi Calm Calm - N/A   Overcast
8:35 PM 42.8 °F - 41.0 °F 93% 30.34 in 10.0 mi Calm Calm - N/A   Overcast
8:40 PM 42.8 °F - 41.0 °F 93% 30.34 in 10.0 mi Calm Calm - N/A   Overcast
8:57 PM 42.8 °F - 41.0 °F 93% 30.34 in 10.0 mi Calm Calm - N/A   Overcast
9:15 PM 42.8 °F - 41.0 °F 93% 30.35 in 10.0 mi Calm Calm - N/A   Overcast
9:35 PM 42.8 °F - 41.0 °F 93% 30.36 in 10.0 mi Calm Calm - N/A   Overcast
9:36 PM 42.8 °F - 41.0 °F 93% 30.36 in 10.0 mi Calm Calm - N/A   Overcast
9:55 PM 42.8 °F - 39.2 °F 87% 30.36 in 10.0 mi Calm Calm - N/A   Overcast
9:56 PM 42.8 °F - 39.2 °F 87% 30.36 in 10.0 mi Calm Calm - N/A   Overcast
10:18 PM 42.8 °F - 39.2 °F 87% 30.37 in 10.0 mi Calm Calm - N/A   Overcast
10:37 PM 42.8 °F - 39.2 °F 87% 30.37 in 10.0 mi Calm Calm - N/A   Overcast
10:56 PM 42.8 °F - 39.2 °F 87% 30.38 in 10.0 mi Calm Calm - N/A   Overcast
11:15 PM 42.8 °F - 39.2 °F 87% 30.38 in 10.0 mi Calm Calm - N/A   Overcast
11:16 PM 42.8 °F - 39.2 °F 87% 30.38 in 10.0 mi Calm Calm - N/A   Overcast
11:35 PM 42.8 °F - 41.0 °F 93% 30.38 in 10.0 mi Calm Calm - N/A   Overcast
11:39 PM 42.8 °F - 41.0 °F 93% 30.38 in 10.0 mi Calm Calm - N/A   Overcast
11:58 PM 42.8 °F - 41.0 °F 93% 30.39 in 10.0 mi Calm Calm - N/A   Overcast